Tracking 22438 objects as of 24-Feb-2021
HD Live streaming from Space Station
objects crossing your sky now

COSMOS 249 DEB *

Track COSMOS 249 DEB * now!
10-day predictions


NORAD ID: 3790
Int'l Code: 1968-091AX
Perigee: 523.8 km
Apogee: 1,753.7 km
Inclination: 63.0 °
Period: 107.9 minutes
Semi major axis: 7509 km
RCS: 0.0825 m2 (small)
Launch date: October 20, 1968
Source: Commonwealth of Independent States (former USSR) (CIS)
Launch site: TYURATAM MISSILE AND SPACE COMPLEX (TTMTR)

Note: This is SATELLITE DEBRIS
aabbcc
Your satellite tracking list
Your tracking list is empty




NASA's NSSDC Master Catalog

Two Line Element Set (TLE):
1  3790U 68091AX  21055.07873192  .00000506  00000-0  17358-3 0  9991
2  3790  62.9766 302.7931 0818875 140.6143 225.7455 13.34037100507822
Source of the keplerian elements: AFSPC